Year,Month,Day,Hour,Minute,Value (Times are PST for temperature in C)
2014,06,07,00,00,13.20
2014,06,07,00,01,13.20
2014,06,07,00,02,13.20
2014,06,07,00,03,13.10
2014,06,07,00,04,13.10
2014,06,07,00,05,13.10
2014,06,07,00,06,13.10
2014,06,07,00,07,13.10
2014,06,07,00,08,13.00
2014,06,07,00,09,13.00
2014,06,07,00,10,13.00
2014,06,07,00,11,13.00
2014,06,07,00,12,13.00
2014,06,07,00,13,13.00
2014,06,07,00,14,12.90
2014,06,07,00,15,12.90
2014,06,07,00,16,12.90
2014,06,07,00,17,12.90
2014,06,07,00,18,12.90
2014,06,07,00,19,12.90
2014,06,07,00,20,12.90
2014,06,07,00,21,12.90
2014,06,07,00,22,12.90
2014,06,07,00,23,12.90
2014,06,07,00,24,12.90
2014,06,07,00,25,12.90
2014,06,07,00,26,12.90
2014,06,07,00,27,12.90
2014,06,07,00,28,12.90
2014,06,07,00,29,12.90
2014,06,07,00,30,12.90
2014,06,07,00,31,12.90
2014,06,07,00,32,12.90
2014,06,07,00,33,12.90
2014,06,07,00,34,12.90
2014,06,07,00,35,12.90
2014,06,07,00,36,12.90
2014,06,07,00,37,12.90
2014,06,07,00,38,12.90
2014,06,07,00,39,12.90
2014,06,07,00,40,12.90
2014,06,07,00,41,12.90
2014,06,07,00,42,12.90
2014,06,07,00,43,12.90
2014,06,07,00,44,12.90
2014,06,07,00,45,12.90
2014,06,07,00,46,12.90
2014,06,07,00,47,12.90
2014,06,07,00,48,12.90
2014,06,07,00,49,12.90
2014,06,07,00,50,12.90
2014,06,07,00,51,12.90
2014,06,07,00,52,12.90
2014,06,07,00,53,12.90
2014,06,07,00,54,12.90
2014,06,07,00,55,12.80
2014,06,07,00,56,12.80
2014,06,07,00,57,12.80
2014,06,07,00,58,12.80
2014,06,07,00,59,12.80
2014,06,07,01,00,12.80
2014,06,07,01,01,12.80
2014,06,07,01,02,12.80
2014,06,07,01,03,12.80
2014,06,07,01,04,12.80
2014,06,07,01,05,12.70
2014,06,07,01,06,12.70
2014,06,07,01,07,12.70
2014,06,07,01,08,12.70
2014,06,07,01,09,12.70
2014,06,07,01,10,12.70
2014,06,07,01,11,12.70
2014,06,07,01,12,12.70
2014,06,07,01,13,12.70
2014,06,07,01,14,12.70
2014,06,07,01,15,12.60
2014,06,07,01,16,12.60
2014,06,07,01,17,12.60
2014,06,07,01,18,12.60
2014,06,07,01,19,12.60
2014,06,07,01,20,12.60
2014,06,07,01,21,12.60
2014,06,07,01,22,12.60
2014,06,07,01,23,12.60
2014,06,07,01,24,12.60
2014,06,07,01,25,12.60
2014,06,07,01,26,12.60
2014,06,07,01,27,12.60
2014,06,07,01,28,12.60
2014,06,07,01,29,12.60
2014,06,07,01,30,12.60
2014,06,07,01,31,12.60
2014,06,07,01,32,12.60
2014,06,07,01,33,12.60
2014,06,07,01,34,12.60
2014,06,07,01,35,12.60
2014,06,07,01,36,12.60
2014,06,07,01,37,12.60
2014,06,07,01,38,12.60
2014,06,07,01,39,12.60
2014,06,07,01,40,12.60
2014,06,07,01,41,12.60
2014,06,07,01,42,12.60
2014,06,07,01,43,12.60
2014,06,07,01,44,12.70
2014,06,07,01,45,12.70
2014,06,07,01,46,12.70
2014,06,07,01,47,12.70
2014,06,07,01,48,12.70
2014,06,07,01,49,12.70
2014,06,07,01,50,12.70
2014,06,07,01,51,12.70
2014,06,07,01,52,12.70
2014,06,07,01,53,12.70
2014,06,07,01,54,12.70
2014,06,07,01,55,12.70
2014,06,07,01,56,12.70
2014,06,07,01,57,12.70
2014,06,07,01,58,12.80
2014,06,07,01,59,12.80
2014,06,07,02,00,12.80
2014,06,07,02,01,12.80
2014,06,07,02,02,12.80
2014,06,07,02,03,12.80
2014,06,07,02,04,12.80
2014,06,07,02,05,12.80
2014,06,07,02,06,12.80
2014,06,07,02,07,12.80
2014,06,07,02,08,12.80
2014,06,07,02,09,12.80
2014,06,07,02,10,12.80
2014,06,07,02,11,12.80
2014,06,07,02,12,12.80
2014,06,07,02,13,12.70
2014,06,07,02,14,12.70
2014,06,07,02,15,12.70
2014,06,07,02,16,12.70
2014,06,07,02,17,12.70
2014,06,07,02,18,12.70
2014,06,07,02,19,12.70
2014,06,07,02,20,12.70
2014,06,07,02,21,12.70
2014,06,07,02,22,12.70
2014,06,07,02,23,12.70
2014,06,07,02,24,12.70
2014,06,07,02,25,12.70
2014,06,07,02,26,12.70
2014,06,07,02,27,12.70
2014,06,07,02,28,12.70
2014,06,07,02,29,12.70
2014,06,07,02,30,12.70
2014,06,07,02,31,12.70
2014,06,07,02,32,12.70
2014,06,07,02,33,12.70
2014,06,07,02,34,12.60
2014,06,07,02,35,12.60
2014,06,07,02,36,12.60
2014,06,07,02,37,12.60
2014,06,07,02,38,12.60
2014,06,07,02,39,12.60
2014,06,07,02,40,12.60
2014,06,07,02,41,12.60
2014,06,07,02,42,12.60
2014,06,07,02,43,12.60
2014,06,07,02,44,12.60
2014,06,07,02,45,12.60
2014,06,07,02,46,12.60
2014,06,07,02,47,12.60
2014,06,07,02,48,12.60
2014,06,07,02,49,12.60
2014,06,07,02,50,12.60
2014,06,07,02,51,12.50
2014,06,07,02,52,12.50
2014,06,07,02,53,12.50
2014,06,07,02,54,12.50
2014,06,07,02,55,12.50
2014,06,07,02,56,12.50
2014,06,07,02,57,12.50
2014,06,07,02,58,12.40
2014,06,07,02,59,12.40
2014,06,07,03,00,12.40
2014,06,07,03,01,12.40
2014,06,07,03,02,12.40
2014,06,07,03,03,12.40
2014,06,07,03,04,12.30
2014,06,07,03,05,12.30
2014,06,07,03,06,12.30
2014,06,07,03,07,12.30
2014,06,07,03,08,12.30
2014,06,07,03,09,12.30
2014,06,07,03,10,12.30
2014,06,07,03,11,12.30
2014,06,07,03,12,12.30
2014,06,07,03,13,12.30
2014,06,07,03,14,12.30
2014,06,07,03,15,12.30
2014,06,07,03,16,12.30
2014,06,07,03,17,12.30
2014,06,07,03,18,12.30
2014,06,07,03,19,12.40
2014,06,07,03,20,12.40
2014,06,07,03,21,12.40
2014,06,07,03,22,12.40
2014,06,07,03,23,12.40
2014,06,07,03,24,12.40
2014,06,07,03,25,12.40
2014,06,07,03,26,12.40
2014,06,07,03,27,12.40
2014,06,07,03,28,12.40
2014,06,07,03,29,12.40
2014,06,07,03,30,12.40
2014,06,07,03,31,12.40
2014,06,07,03,32,12.40
2014,06,07,03,33,12.40
2014,06,07,03,34,12.40
2014,06,07,03,35,12.40
2014,06,07,03,36,12.40
2014,06,07,03,37,12.40
2014,06,07,03,38,12.30
2014,06,07,03,39,12.30
2014,06,07,03,40,12.30
2014,06,07,03,41,12.30
2014,06,07,03,42,12.30
2014,06,07,03,43,12.30
2014,06,07,03,44,12.20
2014,06,07,03,45,12.20
2014,06,07,03,46,12.20
2014,06,07,03,47,12.20
2014,06,07,03,48,12.20
2014,06,07,03,49,12.20
2014,06,07,03,50,12.10
2014,06,07,03,51,12.10
2014,06,07,03,52,12.10
2014,06,07,03,53,12.10
2014,06,07,03,54,12.10
2014,06,07,03,55,12.00
2014,06,07,03,56,12.00
2014,06,07,03,57,12.00
2014,06,07,03,58,12.00
2014,06,07,03,59,12.00
2014,06,07,04,00,12.00
2014,06,07,04,01,11.90
2014,06,07,04,02,11.90
2014,06,07,04,03,12.00
2014,06,07,04,04,12.00
2014,06,07,04,05,12.00
2014,06,07,04,06,12.00
2014,06,07,04,07,12.00
2014,06,07,04,08,12.00
2014,06,07,04,09,11.90
2014,06,07,04,10,11.90
2014,06,07,04,11,11.90
2014,06,07,04,12,11.90
2014,06,07,04,13,11.90
2014,06,07,04,14,11.90
2014,06,07,04,15,11.90
2014,06,07,04,16,11.90
2014,06,07,04,17,11.90
2014,06,07,04,18,11.90
2014,06,07,04,19,11.80
2014,06,07,04,20,11.80
2014,06,07,04,21,11.80
2014,06,07,04,22,11.80
2014,06,07,04,23,11.80
2014,06,07,04,24,11.80
2014,06,07,04,25,11.80
2014,06,07,04,26,11.80
2014,06,07,04,27,11.70
2014,06,07,04,28,11.70
2014,06,07,04,29,11.70
2014,06,07,04,30,11.70
2014,06,07,04,31,11.70
2014,06,07,04,32,11.70
2014,06,07,04,33,11.70
2014,06,07,04,34,11.60
2014,06,07,04,35,11.60
2014,06,07,04,36,11.60
2014,06,07,04,37,11.60
2014,06,07,04,38,11.60
2014,06,07,04,39,11.60
2014,06,07,04,40,11.60
2014,06,07,04,41,11.60
2014,06,07,04,42,11.60
2014,06,07,04,43,11.60
2014,06,07,04,44,11.60
2014,06,07,04,45,11.50
2014,06,07,04,46,11.50
2014,06,07,04,47,11.50
2014,06,07,04,48,11.50
2014,06,07,04,49,11.50
2014,06,07,04,50,11.50
2014,06,07,04,51,11.50
2014,06,07,04,52,11.50
2014,06,07,04,53,11.50
2014,06,07,04,54,11.50
2014,06,07,04,55,11.50
2014,06,07,04,56,11.50
2014,06,07,04,57,11.50
2014,06,07,04,58,11.40
2014,06,07,04,59,11.40
2014,06,07,05,00,11.40
2014,06,07,05,01,11.40
2014,06,07,05,02,11.40
2014,06,07,05,03,11.40
2014,06,07,05,04,11.40
2014,06,07,05,05,11.40
2014,06,07,05,06,11.40
2014,06,07,05,07,11.40
2014,06,07,05,08,11.40
2014,06,07,05,09,11.30
2014,06,07,05,10,11.30
2014,06,07,05,11,11.30
2014,06,07,05,12,11.30
2014,06,07,05,13,11.30
2014,06,07,05,14,11.30
2014,06,07,05,15,11.30
2014,06,07,05,16,11.30
2014,06,07,05,17,11.30
2014,06,07,05,18,11.30
2014,06,07,05,19,11.30
2014,06,07,05,20,11.20
2014,06,07,05,21,11.20
2014,06,07,05,22,11.20
2014,06,07,05,23,11.20
2014,06,07,05,24,11.20
2014,06,07,05,25,11.20
2014,06,07,05,26,11.20
2014,06,07,05,27,11.20
2014,06,07,05,28,11.20
2014,06,07,05,29,11.20
2014,06,07,05,30,11.20
2014,06,07,05,31,11.20
2014,06,07,05,32,11.20
2014,06,07,05,33,11.20
2014,06,07,05,34,11.20
2014,06,07,05,35,11.20
2014,06,07,05,36,11.20
2014,06,07,05,37,11.20
2014,06,07,05,38,11.20
2014,06,07,05,39,11.20
2014,06,07,05,40,11.20
2014,06,07,05,41,11.20
2014,06,07,05,42,11.20
2014,06,07,05,43,11.20
2014,06,07,05,44,11.20
2014,06,07,05,45,11.20
2014,06,07,05,46,11.20
2014,06,07,05,47,11.20
2014,06,07,05,48,11.20
2014,06,07,05,49,11.20
2014,06,07,05,50,11.20
2014,06,07,05,51,11.20
2014,06,07,05,52,11.20
2014,06,07,05,53,11.20
2014,06,07,05,54,11.20
2014,06,07,05,55,11.20
2014,06,07,05,56,11.20
2014,06,07,05,57,11.20
2014,06,07,05,58,11.20
2014,06,07,05,59,11.20
2014,06,07,06,00,11.20
2014,06,07,06,01,11.20
2014,06,07,06,02,11.20
2014,06,07,06,03,11.20
2014,06,07,06,04,11.20
2014,06,07,06,05,11.20
2014,06,07,06,06,11.30
2014,06,07,06,07,11.30
2014,06,07,06,08,11.30
2014,06,07,06,09,11.30
2014,06,07,06,10,11.30
2014,06,07,06,11,11.40
2014,06,07,06,12,11.40
2014,06,07,06,13,11.40
2014,06,07,06,14,11.50
2014,06,07,06,15,11.50
2014,06,07,06,16,11.50
2014,06,07,06,17,11.60
2014,06,07,06,18,11.60
2014,06,07,06,19,11.60
2014,06,07,06,20,11.60
2014,06,07,06,21,11.70
2014,06,07,06,22,11.70
2014,06,07,06,23,11.70
2014,06,07,06,24,11.70
2014,06,07,06,25,11.70
2014,06,07,06,26,11.80
2014,06,07,06,27,11.80
2014,06,07,06,28,11.80
2014,06,07,06,29,11.90
2014,06,07,06,30,11.90
2014,06,07,06,31,11.90
2014,06,07,06,32,12.00
2014,06,07,06,33,12.00
2014,06,07,06,34,12.10
2014,06,07,06,35,12.10
2014,06,07,06,36,12.10
2014,06,07,06,37,12.20
2014,06,07,06,38,12.20
2014,06,07,06,39,12.20
2014,06,07,06,40,12.30
2014,06,07,06,41,12.40
2014,06,07,06,42,12.50
2014,06,07,06,43,12.50
2014,06,07,06,44,12.60
2014,06,07,06,45,12.70
2014,06,07,06,46,12.70
2014,06,07,06,47,12.80
2014,06,07,06,48,12.80
2014,06,07,06,49,12.90
2014,06,07,06,50,13.00
2014,06,07,06,51,13.00
2014,06,07,06,52,13.10
2014,06,07,06,53,13.20
2014,06,07,06,54,13.30
2014,06,07,06,55,13.40
2014,06,07,06,56,13.50
2014,06,07,06,57,13.60
2014,06,07,06,58,13.70
2014,06,07,06,59,13.90
2014,06,07,07,00,14.00
2014,06,07,07,01,14.10
2014,06,07,07,02,14.20
2014,06,07,07,03,14.40
2014,06,07,07,04,14.50
2014,06,07,07,05,14.60
2014,06,07,07,06,14.80
2014,06,07,07,07,14.90
2014,06,07,07,08,15.00
2014,06,07,07,09,15.00
2014,06,07,07,10,15.10
2014,06,07,07,11,15.10
2014,06,07,07,12,15.20
2014,06,07,07,13,15.20
2014,06,07,07,14,15.30
2014,06,07,07,15,15.30
2014,06,07,07,16,15.30
2014,06,07,07,17,15.40
2014,06,07,07,18,15.40
2014,06,07,07,19,15.40
2014,06,07,07,20,15.40
2014,06,07,07,21,15.40
2014,06,07,07,22,15.40
2014,06,07,07,23,15.50
2014,06,07,07,24,15.50
2014,06,07,07,25,15.50
2014,06,07,07,26,15.60
2014,06,07,07,27,15.60
2014,06,07,07,28,15.70
2014,06,07,07,29,15.70
2014,06,07,07,30,15.80
2014,06,07,07,31,15.90
2014,06,07,07,32,15.90
2014,06,07,07,33,16.00
2014,06,07,07,34,16.00
2014,06,07,07,35,16.00
2014,06,07,07,36,16.10
2014,06,07,07,37,16.10
2014,06,07,07,38,16.10
2014,06,07,07,39,16.10
2014,06,07,07,40,16.20
2014,06,07,07,41,16.20
2014,06,07,07,42,16.20
2014,06,07,07,43,16.30
2014,06,07,07,44,16.30
2014,06,07,07,45,16.30
2014,06,07,07,46,16.30
2014,06,07,07,47,16.30
2014,06,07,07,48,16.30
2014,06,07,07,49,16.20
2014,06,07,07,50,16.20
2014,06,07,07,51,16.20
2014,06,07,07,52,16.10
2014,06,07,07,53,16.10
2014,06,07,07,54,16.10
2014,06,07,07,55,16.10
2014,06,07,07,56,16.10
2014,06,07,07,57,16.10
2014,06,07,07,58,16.10
2014,06,07,07,59,16.10
2014,06,07,08,00,16.10
2014,06,07,08,01,16.10
2014,06,07,08,02,16.10
2014,06,07,08,03,16.00
2014,06,07,08,04,16.00
2014,06,07,08,05,15.90
2014,06,07,08,06,15.90
2014,06,07,08,07,15.80
2014,06,07,08,08,15.80
2014,06,07,08,09,15.80
2014,06,07,08,10,15.80
2014,06,07,08,11,15.80
2014,06,07,08,12,15.80
2014,06,07,08,13,15.80
2014,06,07,08,14,15.80
2014,06,07,08,15,15.80
2014,06,07,08,16,15.80
2014,06,07,08,17,15.80
2014,06,07,08,18,15.80
2014,06,07,08,19,15.80
2014,06,07,08,20,15.80
2014,06,07,08,21,15.80
2014,06,07,08,22,15.80
2014,06,07,08,23,15.80
2014,06,07,08,24,15.80
2014,06,07,08,25,15.80
2014,06,07,08,26,15.80
2014,06,07,08,27,15.90
2014,06,07,08,28,15.90
2014,06,07,08,29,15.80
2014,06,07,08,30,15.80
2014,06,07,08,31,15.80
2014,06,07,08,32,15.80
2014,06,07,08,33,15.80
2014,06,07,08,34,15.80
2014,06,07,08,35,15.70
2014,06,07,08,36,15.70
2014,06,07,08,37,15.70
2014,06,07,08,38,15.70
2014,06,07,08,39,15.60
2014,06,07,08,40,15.70
2014,06,07,08,41,15.70
2014,06,07,08,42,15.70
2014,06,07,08,43,15.70
2014,06,07,08,44,15.80
2014,06,07,08,45,15.80
2014,06,07,08,46,15.80
2014,06,07,08,47,15.80
2014,06,07,08,48,15.90
2014,06,07,08,49,15.80
2014,06,07,08,50,15.80
2014,06,07,08,51,15.80
2014,06,07,08,52,15.80
2014,06,07,08,53,15.80
2014,06,07,08,54,15.70
2014,06,07,08,55,15.70
2014,06,07,08,56,15.70
2014,06,07,08,57,15.60
2014,06,07,08,58,15.60
2014,06,07,08,59,15.50
2014,06,07,09,00,15.50
2014,06,07,09,01,15.40
2014,06,07,09,02,15.40
2014,06,07,09,03,15.40
2014,06,07,09,04,15.30
2014,06,07,09,05,15.30
2014,06,07,09,06,15.30
2014,06,07,09,07,15.20
2014,06,07,09,08,15.20
2014,06,07,09,09,15.10
2014,06,07,09,10,15.10
2014,06,07,09,11,15.10
2014,06,07,09,12,15.00
2014,06,07,09,13,15.00
2014,06,07,09,14,15.00
2014,06,07,09,15,15.00
2014,06,07,09,16,15.00
2014,06,07,09,17,15.10
2014,06,07,09,18,15.10
2014,06,07,09,19,15.10
2014,06,07,09,20,15.20
2014,06,07,09,21,15.30
2014,06,07,09,22,15.40
2014,06,07,09,23,15.50
2014,06,07,09,24,15.50
2014,06,07,09,25,15.60
2014,06,07,09,26,15.70
2014,06,07,09,27,15.70
2014,06,07,09,28,15.80
2014,06,07,09,29,15.90
2014,06,07,09,30,16.00
2014,06,07,09,31,16.10
2014,06,07,09,32,16.10
2014,06,07,09,33,16.00
2014,06,07,09,34,16.00
2014,06,07,09,35,16.00
2014,06,07,09,36,16.10
2014,06,07,09,37,16.20
2014,06,07,09,38,16.30
2014,06,07,09,39,16.40
2014,06,07,09,40,16.40
2014,06,07,09,41,16.50
2014,06,07,09,42,16.50
2014,06,07,09,43,16.50
2014,06,07,09,44,16.50
2014,06,07,09,45,16.50
2014,06,07,09,46,16.60
2014,06,07,09,47,16.70
2014,06,07,09,48,16.70
2014,06,07,09,49,16.70
2014,06,07,09,50,16.60
2014,06,07,09,51,16.60
2014,06,07,09,52,16.60
2014,06,07,09,53,16.60
2014,06,07,09,54,16.70
2014,06,07,09,55,16.70
2014,06,07,09,56,16.80
2014,06,07,09,57,16.80
2014,06,07,09,58,16.80
2014,06,07,09,59,16.90
2014,06,07,10,00,17.00
2014,06,07,10,01,17.10
2014,06,07,10,02,17.20
2014,06,07,10,03,17.20
2014,06,07,10,04,17.20
2014,06,07,10,05,17.30
2014,06,07,10,06,17.40
2014,06,07,10,07,17.30
2014,06,07,10,08,17.30
2014,06,07,10,09,17.30
2014,06,07,10,10,17.20
2014,06,07,10,11,17.20
2014,06,07,10,12,17.10
2014,06,07,10,13,17.00
2014,06,07,10,14,17.00
2014,06,07,10,15,17.00
2014,06,07,10,16,16.90
2014,06,07,10,17,16.90
2014,06,07,10,18,16.90
2014,06,07,10,19,17.00
2014,06,07,10,20,17.00
2014,06,07,10,21,17.00
2014,06,07,10,22,17.00
2014,06,07,10,23,17.10
2014,06,07,10,24,17.10
2014,06,07,10,25,17.20
2014,06,07,10,26,17.20
2014,06,07,10,27,17.20
2014,06,07,10,28,17.20
2014,06,07,10,29,17.30
2014,06,07,10,30,17.20
2014,06,07,10,31,17.20
2014,06,07,10,32,17.10
2014,06,07,10,33,17.10
2014,06,07,10,34,17.00
2014,06,07,10,35,17.00
2014,06,07,10,36,16.90
2014,06,07,10,37,16.90
2014,06,07,10,38,17.00
2014,06,07,10,39,17.10
2014,06,07,10,40,17.20
2014,06,07,10,41,17.40
2014,06,07,10,42,17.50
2014,06,07,10,43,17.60
2014,06,07,10,44,17.70
2014,06,07,10,45,17.80
2014,06,07,10,46,17.80
2014,06,07,10,47,17.80
2014,06,07,10,48,17.70
2014,06,07,10,49,17.60
2014,06,07,10,50,17.50
2014,06,07,10,51,17.40
2014,06,07,10,52,17.30
2014,06,07,10,53,17.20
2014,06,07,10,54,17.10
2014,06,07,10,55,17.10
2014,06,07,10,56,17.00
2014,06,07,10,57,17.00
2014,06,07,10,58,16.90
2014,06,07,10,59,16.90
2014,06,07,11,00,16.90
2014,06,07,11,01,16.90
2014,06,07,11,02,16.80
2014,06,07,11,03,16.80
2014,06,07,11,04,16.70
2014,06,07,11,05,16.70
2014,06,07,11,06,16.70
2014,06,07,11,07,16.80
2014,06,07,11,08,16.90
2014,06,07,11,09,16.90
2014,06,07,11,10,17.00
2014,06,07,11,11,17.10
2014,06,07,11,12,17.10
2014,06,07,11,13,17.20
2014,06,07,11,14,17.20
2014,06,07,11,15,17.30
2014,06,07,11,16,17.30
2014,06,07,11,17,17.40
2014,06,07,11,18,17.50
2014,06,07,11,19,17.70
2014,06,07,11,20,17.70
2014,06,07,11,21,17.70
2014,06,07,11,22,17.70
2014,06,07,11,23,17.60
2014,06,07,11,24,17.50
2014,06,07,11,25,17.50
2014,06,07,11,26,17.50
2014,06,07,11,27,17.50
2014,06,07,11,28,17.50
2014,06,07,11,29,17.40
2014,06,07,11,30,17.50
2014,06,07,11,31,17.50
2014,06,07,11,32,17.40
2014,06,07,11,33,17.40
2014,06,07,11,34,17.30
2014,06,07,11,35,17.30
2014,06,07,11,36,17.30
2014,06,07,11,37,17.30
2014,06,07,11,38,17.30
2014,06,07,11,39,17.40
2014,06,07,11,40,17.50
2014,06,07,11,41,17.50
2014,06,07,11,42,17.50
2014,06,07,11,43,17.40
2014,06,07,11,44,17.40
2014,06,07,11,45,17.30
2014,06,07,11,46,17.30
2014,06,07,11,47,17.20
2014,06,07,11,48,17.20
2014,06,07,11,49,17.20
2014,06,07,11,50,17.20
2014,06,07,11,51,17.20
2014,06,07,11,52,17.20
2014,06,07,11,53,17.30
2014,06,07,11,54,17.40
2014,06,07,11,55,17.50
2014,06,07,11,56,17.60
2014,06,07,11,57,17.70
2014,06,07,11,58,17.70
2014,06,07,11,59,17.70
2014,06,07,12,00,17.70
2014,06,07,12,01,17.60
2014,06,07,12,02,17.70
2014,06,07,12,03,17.70
2014,06,07,12,04,17.70
2014,06,07,12,05,17.70
2014,06,07,12,06,17.70
2014,06,07,12,07,17.60
2014,06,07,12,08,17.60
2014,06,07,12,09,17.60
2014,06,07,12,10,17.60
2014,06,07,12,11,17.70
2014,06,07,12,12,17.70
2014,06,07,12,13,17.70
2014,06,07,12,14,17.70
2014,06,07,12,15,17.80
2014,06,07,12,16,17.80
2014,06,07,12,17,17.80
2014,06,07,12,18,17.90
2014,06,07,12,19,17.90
2014,06,07,12,20,17.90
2014,06,07,12,21,17.90
2014,06,07,12,22,17.90
2014,06,07,12,23,17.90
2014,06,07,12,24,17.90
2014,06,07,12,25,17.90
2014,06,07,12,26,17.90
2014,06,07,12,27,17.90
2014,06,07,12,28,17.90
2014,06,07,12,29,18.00
2014,06,07,12,30,18.00
2014,06,07,12,31,18.00
2014,06,07,12,32,18.00
2014,06,07,12,33,17.90
2014,06,07,12,34,18.00
2014,06,07,12,35,17.90
2014,06,07,12,36,18.00
2014,06,07,12,37,18.00
2014,06,07,12,38,18.10
2014,06,07,12,39,18.10
2014,06,07,12,40,18.20
2014,06,07,12,41,18.30
2014,06,07,12,42,18.40
2014,06,07,12,43,18.50
2014,06,07,12,44,18.50
2014,06,07,12,45,18.60
2014,06,07,12,46,18.60
2014,06,07,12,47,18.60
2014,06,07,12,48,18.60
2014,06,07,12,49,18.70
2014,06,07,12,50,18.70
2014,06,07,12,51,18.70
2014,06,07,12,52,18.70
2014,06,07,12,53,18.70
2014,06,07,12,54,18.70
2014,06,07,12,55,18.80
2014,06,07,12,56,18.80
2014,06,07,12,57,18.80
2014,06,07,12,58,18.80
2014,06,07,12,59,18.90
2014,06,07,13,00,19.00
2014,06,07,13,01,19.00
2014,06,07,13,02,19.10
2014,06,07,13,03,19.20
2014,06,07,13,04,19.20
2014,06,07,13,05,19.20
2014,06,07,13,06,19.20
2014,06,07,13,07,19.30
2014,06,07,13,08,19.40
2014,06,07,13,09,19.50
2014,06,07,13,10,19.60
2014,06,07,13,11,19.60
2014,06,07,13,12,19.60
2014,06,07,13,13,19.60
2014,06,07,13,14,19.60
2014,06,07,13,15,19.60
2014,06,07,13,16,19.60
2014,06,07,13,17,19.70
2014,06,07,13,18,19.80
2014,06,07,13,19,19.90
2014,06,07,13,20,20.00
2014,06,07,13,21,20.10
2014,06,07,13,22,20.20
2014,06,07,13,23,20.20
2014,06,07,13,24,20.20
2014,06,07,13,25,20.10
2014,06,07,13,26,20.10
2014,06,07,13,27,20.00
2014,06,07,13,28,20.10
2014,06,07,13,29,20.10
2014,06,07,13,30,20.20
2014,06,07,13,31,20.20
2014,06,07,13,32,20.10
2014,06,07,13,33,20.00
2014,06,07,13,34,20.00
2014,06,07,13,35,20.00
2014,06,07,13,36,20.00
2014,06,07,13,37,20.10
2014,06,07,13,38,20.20
2014,06,07,13,39,20.20
2014,06,07,13,40,20.30
2014,06,07,13,41,20.30
2014,06,07,13,42,20.20
2014,06,07,13,43,20.20
2014,06,07,13,44,20.20
2014,06,07,13,45,20.30
2014,06,07,13,46,20.40
2014,06,07,13,47,20.50
2014,06,07,13,48,20.60
2014,06,07,13,49,20.80
2014,06,07,13,50,20.90
2014,06,07,13,51,21.10
2014,06,07,13,52,21.20
2014,06,07,13,53,21.30
2014,06,07,13,54,21.40
2014,06,07,13,55,21.50
2014,06,07,13,56,21.60
2014,06,07,13,57,21.60
2014,06,07,13,58,21.70
2014,06,07,13,59,21.70
2014,06,07,14,00,21.70
2014,06,07,14,01,21.70
2014,06,07,14,02,21.80
2014,06,07,14,03,21.80
2014,06,07,14,04,21.90
2014,06,07,14,05,21.90
2014,06,07,14,06,21.90
2014,06,07,14,07,21.90
2014,06,07,14,08,22.00
2014,06,07,14,09,22.00
2014,06,07,14,10,22.10
2014,06,07,14,11,22.30
2014,06,07,14,12,22.30
2014,06,07,14,13,22.30
2014,06,07,14,14,22.20
2014,06,07,14,15,22.10
2014,06,07,14,16,22.10
2014,06,07,14,17,22.20
2014,06,07,14,18,22.20
2014,06,07,14,19,22.20
2014,06,07,14,20,22.20
2014,06,07,14,21,22.20
2014,06,07,14,22,22.20
2014,06,07,14,23,22.10
2014,06,07,14,24,22.00
2014,06,07,14,25,21.90
2014,06,07,14,26,21.80
2014,06,07,14,27,21.80
2014,06,07,14,28,21.80
2014,06,07,14,29,21.90
2014,06,07,14,30,22.10
2014,06,07,14,31,22.20
2014,06,07,14,32,22.20
2014,06,07,14,33,22.30
2014,06,07,14,34,22.30
2014,06,07,14,35,22.30
2014,06,07,14,36,22.30
2014,06,07,14,37,22.20
2014,06,07,14,38,22.10
2014,06,07,14,39,22.10
2014,06,07,14,40,22.10
2014,06,07,14,41,22.10
2014,06,07,14,42,22.00
2014,06,07,14,43,22.00
2014,06,07,14,44,22.10
2014,06,07,14,45,22.10
2014,06,07,14,46,22.20
2014,06,07,14,47,22.20
2014,06,07,14,48,22.20
2014,06,07,14,49,22.20
2014,06,07,14,50,22.20
2014,06,07,14,51,22.20
2014,06,07,14,52,22.20
2014,06,07,14,53,22.10
2014,06,07,14,54,22.00
2014,06,07,14,55,22.00
2014,06,07,14,56,21.90
2014,06,07,14,57,21.80
2014,06,07,14,58,21.80
2014,06,07,14,59,21.90
2014,06,07,15,00,21.90
2014,06,07,15,01,22.00
2014,06,07,15,02,22.00
2014,06,07,15,03,22.20
2014,06,07,15,04,22.30
2014,06,07,15,05,22.30
2014,06,07,15,06,22.30
2014,06,07,15,07,22.30
2014,06,07,15,08,22.40
2014,06,07,15,09,22.40
2014,06,07,15,10,22.60
2014,06,07,15,11,22.70
2014,06,07,15,12,22.80
2014,06,07,15,13,22.80
2014,06,07,15,14,22.90
2014,06,07,15,15,23.00
2014,06,07,15,16,22.90
2014,06,07,15,17,22.90
2014,06,07,15,18,22.90
2014,06,07,15,19,22.90
2014,06,07,15,20,22.80
2014,06,07,15,21,22.70
2014,06,07,15,22,22.70
2014,06,07,15,23,22.60
2014,06,07,15,24,22.60
2014,06,07,15,25,22.60
2014,06,07,15,26,22.60
2014,06,07,15,27,22.60
2014,06,07,15,28,22.60
2014,06,07,15,29,22.60
2014,06,07,15,30,22.60
2014,06,07,15,31,22.60
2014,06,07,15,32,22.50
2014,06,07,15,33,22.50
2014,06,07,15,34,22.40
2014,06,07,15,35,22.40
2014,06,07,15,36,22.30
2014,06,07,15,37,22.40
2014,06,07,15,38,22.50
2014,06,07,15,39,22.50
2014,06,07,15,40,22.60
2014,06,07,15,41,22.70
2014,06,07,15,42,22.70
2014,06,07,15,43,22.70
2014,06,07,15,44,22.70
2014,06,07,15,45,22.70
2014,06,07,15,46,22.70
2014,06,07,15,47,22.70
2014,06,07,15,48,22.70
2014,06,07,15,49,22.70
2014,06,07,15,50,22.60
2014,06,07,15,51,22.60
2014,06,07,15,52,22.60
2014,06,07,15,53,22.70
2014,06,07,15,54,22.70
2014,06,07,15,55,22.70
2014,06,07,15,56,22.70
2014,06,07,15,57,22.70
2014,06,07,15,58,22.70
2014,06,07,15,59,22.70
2014,06,07,16,00,22.70
2014,06,07,16,01,22.60
2014,06,07,16,02,22.60
2014,06,07,16,03,22.60
2014,06,07,16,04,22.60
2014,06,07,16,05,22.70
2014,06,07,16,06,22.80
2014,06,07,16,07,22.80
2014,06,07,16,08,22.80
2014,06,07,16,09,22.90
2014,06,07,16,10,22.90
2014,06,07,16,11,23.00
2014,06,07,16,12,23.10
2014,06,07,16,13,23.10
2014,06,07,16,14,23.20
2014,06,07,16,15,23.30
2014,06,07,16,16,23.40
2014,06,07,16,17,23.40
2014,06,07,16,18,23.40
2014,06,07,16,19,23.40
2014,06,07,16,20,23.40
2014,06,07,16,21,23.30
2014,06,07,16,22,23.30
2014,06,07,16,23,23.40
2014,06,07,16,24,23.50
2014,06,07,16,25,23.60
2014,06,07,16,26,23.60
2014,06,07,16,27,23.60
2014,06,07,16,28,23.60
2014,06,07,16,29,23.60
2014,06,07,16,30,23.60
2014,06,07,16,31,23.60
2014,06,07,16,32,23.60
2014,06,07,16,33,23.60
2014,06,07,16,34,23.70
2014,06,07,16,35,23.80
2014,06,07,16,36,23.80
2014,06,07,16,37,23.90
2014,06,07,16,38,23.90
2014,06,07,16,39,23.90
2014,06,07,16,40,23.90
2014,06,07,16,41,23.90
2014,06,07,16,42,23.90
2014,06,07,16,43,23.90
2014,06,07,16,44,23.90
2014,06,07,16,45,23.90
2014,06,07,16,46,23.90
2014,06,07,16,47,23.80
2014,06,07,16,48,23.80
2014,06,07,16,49,23.70
2014,06,07,16,50,23.70
2014,06,07,16,51,23.60
2014,06,07,16,52,23.60
2014,06,07,16,53,23.50
2014,06,07,16,54,23.50
2014,06,07,16,55,23.40
2014,06,07,16,56,23.40
2014,06,07,16,57,23.40
2014,06,07,16,58,23.30
2014,06,07,16,59,23.30
2014,06,07,17,00,23.20
2014,06,07,17,01,23.30
2014,06,07,17,02,23.30
2014,06,07,17,03,23.30
2014,06,07,17,04,23.20
2014,06,07,17,05,23.20
2014,06,07,17,06,23.20
2014,06,07,17,07,23.20
2014,06,07,17,08,23.20
2014,06,07,17,09,23.30
2014,06,07,17,10,23.30
2014,06,07,17,11,23.30
2014,06,07,17,12,23.40
2014,06,07,17,13,23.40
2014,06,07,17,14,23.50
2014,06,07,17,15,23.40
2014,06,07,17,16,23.40
2014,06,07,17,17,23.40
2014,06,07,17,18,23.40
2014,06,07,17,19,23.40